owner,sensor,date,latitude,longitude,vertical_datum,mass_concentration_of_oxygen_in_sea_water,qcFlag 
DISL,ioos:station:DISL:PPTA:1,2016-06-01T00:00:00Z,30.2791,-87.5561,1.299,7.12,1111122 
DISL,ioos:station:DISL:PPTA:1,2016-06-01T00:30:00Z,30.2791,-87.5561,1.3,6.93,1111122 
DISL,ioos:station:DISL:PPTA:1,2016-06-01T01:00:00Z,30.2791,-87.5561,1.301,6.78,1111122 
DISL,ioos:station:DISL:PPTA:1,2016-06-01T01:30:00Z,30.2791,-87.5561,1.295,6.46,1111122 
DISL,ioos:station:DISL:PPTA:1,2016-06-01T02:00:00Z,30.2791,-87.5561,1.289,6.18,1111122 
DISL,ioos:station:DISL:PPTA:1,2016-06-01T02:30:00Z,30.2791,-87.5561,1.281,6.53,1111122 
DISL,ioos:station:DISL:PPTA:1,2016-06-01T03:00:00Z,30.2791,-87.5561,1.272,6.08,1111122 
DISL,ioos:station:DISL:PPTA:1,2016-06-01T03:30:00Z,30.2791,-87.5561,1.268,5.66,1111122 
DISL,ioos:station:DISL:PPTA:1,2016-06-01T04:00:00Z,30.2791,-87.5561,1.263,5.85,1111122 
DISL,ioos:station:DISL:PPTA:1,2016-06-01T04:30:00Z,30.2791,-87.5561,1.261,6.14,1111122 
DISL,ioos:station:DISL:PPTA:1,2016-06-01T05:00:00Z,30.2791,-87.5561,1.265,5.68,1111122 
DISL,ioos:station:DISL:PPTA:1,2016-06-01T05:30:00Z,30.2791,-87.5561,1.268,5.74,1111122 
DISL,ioos:station:DISL:PPTA:1,2016-06-01T06:00:00Z,30.2791,-87.5561,1.271,5.9,1111122 
DISL,ioos:station:DISL:PPTA:1,2016-06-01T06:30:00Z,30.2791,-87.5561,1.265,5.74,1111122 
DISL,ioos:station:DISL:PPTA:1,2016-06-01T07:00:00Z,30.2791,-87.5561,1.258,5.63,1111122 
DISL,ioos:station:DISL:PPTA:1,2016-06-01T07:30:00Z,30.2791,-87.5561,1.248,5.67,1111122 
DISL,ioos:station:DISL:PPTA:1,2016-06-01T08:00:00Z,30.2791,-87.5561,1.243,5.4,1111122 
DISL,ioos:station:DISL:PPTA:1,2016-06-01T08:30:00Z,30.2791,-87.5561,1.24,5.37,1111122 
DISL,ioos:station:DISL:PPTA:1,2016-06-01T09:00:00Z,30.2791,-87.5561,1.245,5.48,1111122 
DISL,ioos:station:DISL:PPTA:1,2016-06-01T09:30:00Z,30.2791,-87.5561,1.248,5.7,1111122 
DISL,ioos:station:DISL:PPTA:1,2016-06-01T10:00:00Z,30.2791,-87.5561,1.258,5.44,1111122 
DISL,ioos:station:DISL:PPTA:1,2016-06-01T10:30:00Z,30.2791,-87.5561,1.263,5.64,1111122 
DISL,ioos:station:DISL:PPTA:1,2016-06-01T11:00:00Z,30.2791,-87.5561,1.27,5.56,1111122 
DISL,ioos:station:DISL:PPTA:1,2016-06-01T11:30:00Z,30.2791,-87.5561,1.276,5.85,1111122 
DISL,ioos:station:DISL:PPTA:1,2016-06-01T12:00:00Z,30.2791,-87.5561,1.278,5.63,1111122 
DISL,ioos:station:DISL:PPTA:1,2016-06-01T12:30:00Z,30.2791,-87.5561,1.278,5.86,1111122 
DISL,ioos:station:DISL:PPTA:1,2016-06-01T13:00:00Z,30.2791,-87.5561,1.257,6.07,1111122 
DISL,ioos:station:DISL:PPTA:1,2016-06-01T13:30:00Z,30.2791,-87.5561,1.253,6.06,1111122 
DISL,ioos:station:DISL:PPTA:1,2016-06-01T14:00:00Z,30.2791,-87.5561,1.241,5.86,1111122 
DISL,ioos:station:DISL:PPTA:1,2016-06-01T14:30:00Z,30.2791,-87.5561,1.24,6.16,1111122 
DISL,ioos:station:DISL:PPTA:1,2016-06-01T15:00:00Z,30.2791,-87.5561,1.233,6.13,1111122 
DISL,ioos:station:DISL:PPTA:1,2016-06-01T15:30:00Z,30.2791,-87.5561,1.213,6.11,1111122 
DISL,ioos:station:DISL:PPTA:1,2016-06-01T16:00:00Z,30.2791,-87.5561,1.269,6.12,1111122 
DISL,ioos:station:DISL:PPTA:1,2016-06-01T16:30:00Z,30.2791,-87.5561,1.331,6.38,1111122 
DISL,ioos:station:DISL:PPTA:1,2016-06-01T17:00:00Z,30.2791,-87.5561,1.349,6.6,1111122 
DISL,ioos:station:DISL:PPTA:1,2016-06-01T17:30:00Z,30.2791,-87.5561,1.331,6.5,1111122 
DISL,ioos:station:DISL:PPTA:1,2016-06-01T18:00:00Z,30.2791,-87.5561,1.33,6.54,1111122 
DISL,ioos:station:DISL:PPTA:1,2016-06-01T18:30:00Z,30.2791,-87.5561,1.326,7.23,1111122 
DISL,ioos:station:DISL:PPTA:1,2016-06-01T19:00:00Z,30.2791,-87.5561,1.325,7.15,1111122 
DISL,ioos:station:DISL:PPTA:1,2016-06-01T19:30:00Z,30.2791,-87.5561,1.305,7.08,1111122 
DISL,ioos:station:DISL:PPTA:1,2016-06-01T20:00:00Z,30.2791,-87.5561,1.297,7.26,1111122 
DISL,ioos:station:DISL:PPTA:1,2016-06-01T20:30:00Z,30.2791,-87.5561,1.299,7.28,1111122 
DISL,ioos:station:DISL:PPTA:1,2016-06-01T21:00:00Z,30.2791,-87.5561,1.291,7.1,1111122 
DISL,ioos:station:DISL:PPTA:1,2016-06-01T21:30:00Z,30.2791,-87.5561,1.288,7.08,1111122 
DISL,ioos:station:DISL:PPTA:1,2016-06-01T22:00:00Z,30.2791,-87.5561,1.282,7.17,1111122 
DISL,ioos:station:DISL:PPTA:1,2016-06-01T22:30:00Z,30.2791,-87.5561,1.278,7.33,1111122 
DISL,ioos:station:DISL:PPTA:1,2016-06-01T23:00:00Z,30.2791,-87.5561,1.275,7.19,1111122 
DISL,ioos:station:DISL:PPTA:1,2016-06-01T23:30:00Z,30.2791,-87.5561,1.251,6.87,1111122 
DISL,ioos:station:DISL:PPTA:1,2016-06-02T00:00:00Z,30.2791,-87.5561,1.245,7.19,1111122 
DISL,ioos:station:DISL:PPTA:1,2016-06-02T00:30:00Z,30.2791,-87.5561,1.243,7.04,1111122 
DISL,ioos:station:DISL:PPTA:1,2016-06-02T01:00:00Z,30.2791,-87.5561,1.238,6.62,1111122 
DISL,ioos:station:DISL:PPTA:1,2016-06-02T01:30:00Z,30.2791,-87.5561,1.237,6.39,1111122 
DISL,ioos:station:DISL:PPTA:1,2016-06-02T02:00:00Z,30.2791,-87.5561,1.236,6.3,1111122 
DISL,ioos:station:DISL:PPTA:1,2016-06-02T02:30:00Z,30.2791,-87.5561,1.231,5.76,1111122 
DISL,ioos:station:DISL:PPTA:1,2016-06-02T03:00:00Z,30.2791,-87.5561,1.229,5.64,1111122 
DISL,ioos:station:DISL:PPTA:1,2016-06-02T03:30:00Z,30.2791,-87.5561,1.228,5.85,1111122 
DISL,ioos:station:DISL:PPTA:1,2016-06-02T04:00:00Z,30.2791,-87.5561,1.23,5.83,1111122 
DISL,ioos:station:DISL:PPTA:1,2016-06-02T04:30:00Z,30.2791,-87.5561,1.236,5.71,1111122 
DISL,ioos:station:DISL:PPTA:1,2016-06-02T05:00:00Z,30.2791,-87.5561,1.228,5.81,1111122 
DISL,ioos:station:DISL:PPTA:1,2016-06-02T05:30:00Z,30.2791,-87.5561,1.208,5.59,1111122 
DISL,ioos:station:DISL:PPTA:1,2016-06-02T06:00:00Z,30.2791,-87.5561,1.207,5.56,1111122 
DISL,ioos:station:DISL:PPTA:1,2016-06-02T06:30:00Z,30.2791,-87.5561,1.211,5.8,1111122 
DISL,ioos:station:DISL:PPTA:1,2016-06-02T07:00:00Z,30.2791,-87.5561,1.225,5.55,1111122 
DISL,ioos:station:DISL:PPTA:1,2016-06-02T07:30:00Z,30.2791,-87.5561,1.245,5.72,1111122 
DISL,ioos:station:DISL:PPTA:1,2016-06-02T08:00:00Z,30.2791,-87.5561,1.258,5.34,1111122 
DISL,ioos:station:DISL:PPTA:1,2016-06-02T08:30:00Z,30.2791,-87.5561,1.282,5.76,1111122 
DISL,ioos:station:DISL:PPTA:1,2016-06-02T09:00:00Z,30.2791,-87.5561,1.303,5.78,1111122 
DISL,ioos:station:DISL:PPTA:1,2016-06-02T09:30:00Z,30.2791,-87.5561,1.317,5.65,1111122 
DISL,ioos:station:DISL:PPTA:1,2016-06-02T10:00:00Z,30.2791,-87.5561,1.332,5.5,1111122 
DISL,ioos:station:DISL:PPTA:1,2016-06-02T10:30:00Z,30.2791,-87.5561,1.346,5.77,1111122 
DISL,ioos:station:DISL:PPTA:1,2016-06-02T11:00:00Z,30.2791,-87.5561,1.36,5.57,1111122 
DISL,ioos:station:DISL:PPTA:1,2016-06-02T11:30:00Z,30.2791,-87.5561,1.371,5.5,1111122 
DISL,ioos:station:DISL:PPTA:1,2016-06-02T12:00:00Z,30.2791,-87.5561,1.374,5.54,1111122 
DISL,ioos:station:DISL:PPTA:1,2016-06-02T12:30:00Z,30.2791,-87.5561,1.374,5.71,1111122 
DISL,ioos:station:DISL:PPTA:1,2016-06-02T13:00:00Z,30.2791,-87.5561,1.368,5.41,1111122 
DISL,ioos:station:DISL:PPTA:1,2016-06-02T13:30:00Z,30.2791,-87.5561,1.361,5.88,1111122 
DISL,ioos:station:DISL:PPTA:1,2016-06-02T14:00:00Z,30.2791,-87.5561,1.346,5.85,1111122 
DISL,ioos:station:DISL:PPTA:1,2016-06-02T14:30:00Z,30.2791,-87.5561,1.334,6.0,1111122 
DISL,ioos:station:DISL:PPTA:1,2016-06-02T15:00:00Z,30.2791,-87.5561,1.318,5.73,1111122 
DISL,ioos:station:DISL:PPTA:1,2016-06-02T15:30:00Z,30.2791,-87.5561,1.314,5.99,1111122 
DISL,ioos:station:DISL:PPTA:1,2016-06-02T16:00:00Z,30.2791,-87.5561,1.299,6.03,1111122 
DISL,ioos:station:DISL:PPTA:1,2016-06-02T16:30:00Z,30.2791,-87.5561,1.336,6.05,1111122 
DISL,ioos:station:DISL:PPTA:1,2016-06-02T17:00:00Z,30.2791,-87.5561,1.388,6.24,1111122 
DISL,ioos:station:DISL:PPTA:1,2016-06-02T17:30:00Z,30.2791,-87.5561,1.378,6.39,1111122 
DISL,ioos:station:DISL:PPTA:1,2016-06-02T18:00:00Z,30.2791,-87.5561,1.37,6.46,1111122 
DISL,ioos:station:DISL:PPTA:1,2016-06-02T18:30:00Z,30.2791,-87.5561,1.359,6.75,1111122 
DISL,ioos:station:DISL:PPTA:1,2016-06-02T19:00:00Z,30.2791,-87.5561,1.344,6.77,1111122 
DISL,ioos:station:DISL:PPTA:1,2016-06-02T19:30:00Z,30.2791,-87.5561,1.335,6.71,1111122 
DISL,ioos:station:DISL:PPTA:1,2016-06-02T20:00:00Z,30.2791,-87.5561,1.33,6.79,1111122 
DISL,ioos:station:DISL:PPTA:1,2016-06-02T20:30:00Z,30.2791,-87.5561,1.313,6.89,1111122 
DISL,ioos:station:DISL:PPTA:1,2016-06-02T21:00:00Z,30.2791,-87.5561,1.309,6.75,1111122 
DISL,ioos:station:DISL:PPTA:1,2016-06-02T21:30:00Z,30.2791,-87.5561,1.297,6.97,1111122 
DISL,ioos:station:DISL:PPTA:1,2016-06-02T22:00:00Z,30.2791,-87.5561,1.287,7.22,1111122 
DISL,ioos:station:DISL:PPTA:1,2016-06-02T22:30:00Z,30.2791,-87.5561,1.282,6.97,1111122 
DISL,ioos:station:DISL:PPTA:1,2016-06-02T23:00:00Z,30.2791,-87.5561,1.274,6.58,1111122 
DISL,ioos:station:DISL:PPTA:1,2016-06-02T23:30:00Z,30.2791,-87.5561,1.268,7.08,1111122 
DISL,ioos:station:DISL:PPTA:1,2016-06-03T00:00:00Z,30.2791,-87.5561,1.264,7.14,1111122 
DISL,ioos:station:DISL:PPTA:1,2016-06-03T00:30:00Z,30.2791,-87.5561,1.256,7.0,1111122 
DISL,ioos:station:DISL:PPTA:1,2016-06-03T01:00:00Z,30.2791,-87.5561,1.248,7.02,1111122 
DISL,ioos:station:DISL:PPTA:1,2016-06-03T01:30:00Z,30.2791,-87.5561,1.242,6.65,1111122 
DISL,ioos:station:DISL:PPTA:1,2016-06-03T02:00:00Z,30.2791,-87.5561,1.234,6.09,1111122 
DISL,ioos:station:DISL:PPTA:1,2016-06-03T02:30:00Z,30.2791,-87.5561,1.232,5.92,1111122 
DISL,ioos:station:DISL:PPTA:1,2016-06-03T03:00:00Z,30.2791,-87.5561,1.225,5.93,1111122 
DISL,ioos:station:DISL:PPTA:1,2016-06-03T03:30:00Z,30.2791,-87.5561,1.227,6.13,1111122 
DISL,ioos:station:DISL:PPTA:1,2016-06-03T04:00:00Z,30.2791,-87.5561,1.229,5.93,1111122 
DISL,ioos:station:DISL:PPTA:1,2016-06-03T04:30:00Z,30.2791,-87.5561,1.226,5.37,1111122 
DISL,ioos:station:DISL:PPTA:1,2016-06-03T05:00:00Z,30.2791,-87.5561,1.231,5.67,1111122 
DISL,ioos:station:DISL:PPTA:1,2016-06-03T05:30:00Z,30.2791,-87.5561,1.236,5.75,1111122 
DISL,ioos:station:DISL:PPTA:1,2016-06-03T06:00:00Z,30.2791,-87.5561,1.243,5.69,1111122 
DISL,ioos:station:DISL:PPTA:1,2016-06-03T06:30:00Z,30.2791,-87.5561,1.243,5.5,1111122 
DISL,ioos:station:DISL:PPTA:1,2016-06-03T07:00:00Z,30.2791,-87.5561,1.242,5.3,1111122 
DISL,ioos:station:DISL:PPTA:1,2016-06-03T07:30:00Z,30.2791,-87.5561,1.239,5.45,1111122 
DISL,ioos:station:DISL:PPTA:1,2016-06-03T08:00:00Z,30.2791,-87.5561,1.241,4.87,1111122 
DISL,ioos:station:DISL:PPTA:1,2016-06-03T08:30:00Z,30.2791,-87.5561,1.242,5.66,1111122 
DISL,ioos:station:DISL:PPTA:1,2016-06-03T09:00:00Z,30.2791,-87.5561,1.244,5.37,1111122 
DISL,ioos:station:DISL:PPTA:1,2016-06-03T09:30:00Z,30.2791,-87.5561,1.245,4.8,1111122 
DISL,ioos:station:DISL:PPTA:1,2016-06-03T10:00:00Z,30.2791,-87.5561,1.254,5.09,1111122 
DISL,ioos:station:DISL:PPTA:1,2016-06-03T10:30:00Z,30.2791,-87.5561,1.259,4.67,1111122 
DISL,ioos:station:DISL:PPTA:1,2016-06-03T11:00:00Z,30.2791,-87.5561,1.259,5.12,1111122 
DISL,ioos:station:DISL:PPTA:1,2016-06-03T11:30:00Z,30.2791,-87.5561,1.258,5.09,1111122 
DISL,ioos:station:DISL:PPTA:1,2016-06-03T12:00:00Z,30.2791,-87.5561,1.258,5.58,1111122 
DISL,ioos:station:DISL:PPTA:1,2016-06-03T12:30:00Z,30.2791,-87.5561,1.256,5.77,1111122 
DISL,ioos:station:DISL:PPTA:1,2016-06-03T13:00:00Z,30.2791,-87.5561,1.254,5.78,1111122 
DISL,ioos:station:DISL:PPTA:1,2016-06-03T13:30:00Z,30.2791,-87.5561,1.25,6.06,1111122 
DISL,ioos:station:DISL:PPTA:1,2016-06-03T14:00:00Z,30.2791,-87.5561,1.242,5.86,1111122 
DISL,ioos:station:DISL:PPTA:1,2016-06-03T14:30:00Z,30.2791,-87.5561,1.241,6.4,1111122 
DISL,ioos:station:DISL:PPTA:1,2016-06-03T15:00:00Z,30.2791,-87.5561,1.231,6.17,1111122 
DISL,ioos:station:DISL:PPTA:1,2016-06-03T15:30:00Z,30.2791,-87.5561,1.235,6.13,1111122 
DISL,ioos:station:DISL:PPTA:1,2016-06-03T16:00:00Z,30.2791,-87.5561,1.24,6.46,1111122 
DISL,ioos:station:DISL:PPTA:1,2016-06-03T16:30:00Z,30.2791,-87.5561,1.249,6.29,1111122 
DISL,ioos:station:DISL:PPTA:1,2016-06-03T17:00:00Z,30.2791,-87.5561,1.271,6.46,1111122 
DISL,ioos:station:DISL:PPTA:1,2016-06-03T17:30:00Z,30.2791,-87.5561,1.305,6.33,1111122 
DISL,ioos:station:DISL:PPTA:1,2016-06-03T18:00:00Z,30.2791,-87.5561,1.336,6.72,1111122 
DISL,ioos:station:DISL:PPTA:1,2016-06-03T18:30:00Z,30.2791,-87.5561,1.351,6.4,1111122 
DISL,ioos:station:DISL:PPTA:1,2016-06-03T19:00:00Z,30.2791,-87.5561,1.355,6.89,1111122 
DISL,ioos:station:DISL:PPTA:1,2016-06-03T19:30:00Z,30.2791,-87.5561,1.358,6.48,1111122 
DISL,ioos:station:DISL:PPTA:1,2016-06-03T20:00:00Z,30.2791,-87.5561,1.362,6.61,1111122 
DISL,ioos:station:DISL:PPTA:1,2016-06-03T20:30:00Z,30.2791,-87.5561,1.345,6.88,1111122 
DISL,ioos:station:DISL:PPTA:1,2016-06-03T21:00:00Z,30.2791,-87.5561,1.33,6.91,1111122 
DISL,ioos:station:DISL:PPTA:1,2016-06-03T21:30:00Z,30.2791,-87.5561,1.326,6.87,1111122 
DISL,ioos:station:DISL:PPTA:1,2016-06-03T22:00:00Z,30.2791,-87.5561,1.302,6.82,1111122 
DISL,ioos:station:DISL:PPTA:1,2016-06-03T22:30:00Z,30.2791,-87.5561,1.291,6.95,1111122 
DISL,ioos:station:DISL:PPTA:1,2016-06-03T23:00:00Z,30.2791,-87.5561,1.28,6.87,1111122 
DISL,ioos:station:DISL:PPTA:1,2016-06-03T23:30:00Z,30.2791,-87.5561,1.271,6.87,1111122 
DISL,ioos:station:DISL:PPTA:1,2016-06-04T00:00:00Z,30.2791,-87.5561,1.244,6.84,1111122 
DISL,ioos:station:DISL:PPTA:1,2016-06-04T00:30:00Z,30.2791,-87.5561,1.24,6.76,1111122 
DISL,ioos:station:DISL:PPTA:1,2016-06-04T01:00:00Z,30.2791,-87.5561,1.229,6.55,1111122 
DISL,ioos:station:DISL:PPTA:1,2016-06-04T01:30:00Z,30.2791,-87.5561,1.219,6.42,1111122 
DISL,ioos:station:DISL:PPTA:1,2016-06-04T02:00:00Z,30.2791,-87.5561,1.219,6.34,1111122 
DISL,ioos:station:DISL:PPTA:1,2016-06-04T02:30:00Z,30.2791,-87.5561,1.218,6.0,1111122 
DISL,ioos:station:DISL:PPTA:1,2016-06-04T03:00:00Z,30.2791,-87.5561,1.221,6.1,1111122 
DISL,ioos:station:DISL:PPTA:1,2016-06-04T03:30:00Z,30.2791,-87.5561,1.219,5.33,1111122 
DISL,ioos:station:DISL:PPTA:1,2016-06-04T04:00:00Z,30.2791,-87.5561,1.226,5.21,1111122 
DISL,ioos:station:DISL:PPTA:1,2016-06-04T04:30:00Z,30.2791,-87.5561,1.239,5.88,1111122 
DISL,ioos:station:DISL:PPTA:1,2016-06-04T05:00:00Z,30.2791,-87.5561,1.245,5.1,1111122 
DISL,ioos:station:DISL:PPTA:1,2016-06-04T05:30:00Z,30.2791,-87.5561,1.251,5.24,1111122 
DISL,ioos:station:DISL:PPTA:1,2016-06-04T06:00:00Z,30.2791,-87.5561,1.263,5.7,1111122 
DISL,ioos:station:DISL:PPTA:1,2016-06-04T06:30:00Z,30.2791,-87.5561,1.261,4.92,1111122 
DISL,ioos:station:DISL:PPTA:1,2016-06-04T07:00:00Z,30.2791,-87.5561,1.275,5.15,1111122 
DISL,ioos:station:DISL:PPTA:1,2016-06-04T07:30:00Z,30.2791,-87.5561,1.283,5.43,1111122 
DISL,ioos:station:DISL:PPTA:1,2016-06-04T08:00:00Z,30.2791,-87.5561,1.273,5.37,1111122 
DISL,ioos:station:DISL:PPTA:1,2016-06-04T08:30:00Z,30.2791,-87.5561,1.292,5.97,1111122 
DISL,ioos:station:DISL:PPTA:1,2016-06-04T09:00:00Z,30.2791,-87.5561,1.287,5.75,1111122 
DISL,ioos:station:DISL:PPTA:1,2016-06-04T09:30:00Z,30.2791,-87.5561,1.303,5.98,1111122 
DISL,ioos:station:DISL:PPTA:1,2016-06-04T10:00:00Z,30.2791,-87.5561,1.321,5.58,1111122 
DISL,ioos:station:DISL:PPTA:1,2016-06-04T10:30:00Z,30.2791,-87.5561,1.338,5.84,1111122 
DISL,ioos:station:DISL:PPTA:1,2016-06-04T11:00:00Z,30.2791,-87.5561,1.362,5.62,1111122 
DISL,ioos:station:DISL:PPTA:1,2016-06-04T11:30:00Z,30.2791,-87.5561,1.38,5.48,1111122 
DISL,ioos:station:DISL:PPTA:1,2016-06-04T12:00:00Z,30.2791,-87.5561,1.407,5.55,1111122 
DISL,ioos:station:DISL:PPTA:1,2016-06-04T12:30:00Z,30.2791,-87.5561,1.425,5.83,1111122 
DISL,ioos:station:DISL:PPTA:1,2016-06-04T13:00:00Z,30.2791,-87.5561,1.44,5.33,1111122 
DISL,ioos:station:DISL:PPTA:1,2016-06-04T13:30:00Z,30.2791,-87.5561,1.455,5.43,1111122 
DISL,ioos:station:DISL:PPTA:1,2016-06-04T14:00:00Z,30.2791,-87.5561,1.471,5.97,1111122 
DISL,ioos:station:DISL:PPTA:1,2016-06-04T14:30:00Z,30.2791,-87.5561,1.475,5.74,1111122 
DISL,ioos:station:DISL:PPTA:1,2016-06-04T15:00:00Z,30.2791,-87.5561,1.478,5.98,1111122 
DISL,ioos:station:DISL:PPTA:1,2016-06-04T15:30:00Z,30.2791,-87.5561,1.487,6.23,1111122 
DISL,ioos:station:DISL:PPTA:1,2016-06-04T16:00:00Z,30.2791,-87.5561,1.488,6.08,1111122 
DISL,ioos:station:DISL:PPTA:1,2016-06-04T16:30:00Z,30.2791,-87.5561,1.484,6.13,1111122 
DISL,ioos:station:DISL:PPTA:1,2016-06-04T17:00:00Z,30.2791,-87.5561,1.498,6.32,1111122 
DISL,ioos:station:DISL:PPTA:1,2016-06-04T17:30:00Z,30.2791,-87.5561,1.508,6.12,1111122 
DISL,ioos:station:DISL:PPTA:1,2016-06-04T18:00:00Z,30.2791,-87.5561,1.528,6.38,1111122 
DISL,ioos:station:DISL:PPTA:1,2016-06-04T18:30:00Z,30.2791,-87.5561,1.514,6.21,1111122 
DISL,ioos:station:DISL:PPTA:1,2016-06-04T19:00:00Z,30.2791,-87.5561,1.455,6.25,1111122 
DISL,ioos:station:DISL:PPTA:1,2016-06-04T19:30:00Z,30.2791,-87.5561,1.434,6.67,1111122 
DISL,ioos:station:DISL:PPTA:1,2016-06-04T20:00:00Z,30.2791,-87.5561,1.436,6.4,1111122 
DISL,ioos:station:DISL:PPTA:1,2016-06-04T20:30:00Z,30.2791,-87.5561,1.435,6.47,1111122 
DISL,ioos:station:DISL:PPTA:1,2016-06-04T21:00:00Z,30.2791,-87.5561,1.395,6.58,1111122 
DISL,ioos:station:DISL:PPTA:1,2016-06-04T21:30:00Z,30.2791,-87.5561,1.385,6.92,1111122 
DISL,ioos:station:DISL:PPTA:1,2016-06-04T22:00:00Z,30.2791,-87.5561,1.38,6.95,1111122 
DISL,ioos:station:DISL:PPTA:1,2016-06-04T22:30:00Z,30.2791,-87.5561,1.355,6.88,1111122 
DISL,ioos:station:DISL:PPTA:1,2016-06-04T23:00:00Z,30.2791,-87.5561,1.351,6.87,1111122 
DISL,ioos:station:DISL:PPTA:1,2016-06-04T23:30:00Z,30.2791,-87.5561,1.325,6.65,1111122 
DISL,ioos:station:DISL:PPTA:1,2016-06-05T00:00:00Z,30.2791,-87.5561,1.315,6.66,1111122 
DISL,ioos:station:DISL:PPTA:1,2016-06-05T00:30:00Z,30.2791,-87.5561,1.306,6.61,1111122 
DISL,ioos:station:DISL:PPTA:1,2016-06-05T01:00:00Z,30.2791,-87.5561,1.292,6.54,1111122 
DISL,ioos:station:DISL:PPTA:1,2016-06-05T01:30:00Z,30.2791,-87.5561,1.29,6.41,1111122 
DISL,ioos:station:DISL:PPTA:1,2016-06-05T02:00:00Z,30.2791,-87.5561,1.286,6.42,1111122 
DISL,ioos:station:DISL:PPTA:1,2016-06-05T02:30:00Z,30.2791,-87.5561,1.286,6.32,1111122 
DISL,ioos:station:DISL:PPTA:1,2016-06-05T03:00:00Z,30.2791,-87.5561,1.281,6.13,1111122 
DISL,ioos:station:DISL:PPTA:1,2016-06-05T03:30:00Z,30.2791,-87.5561,1.276,6.12,1111122 
DISL,ioos:station:DISL:PPTA:1,2016-06-05T04:00:00Z,30.2791,-87.5561,1.271,5.79,1111122 
DISL,ioos:station:DISL:PPTA:1,2016-06-05T04:30:00Z,30.2791,-87.5561,1.276,5.99,1111122 
DISL,ioos:station:DISL:PPTA:1,2016-06-05T05:00:00Z,30.2791,-87.5561,1.276,5.51,1111122 
DISL,ioos:station:DISL:PPTA:1,2016-06-05T05:30:00Z,30.2791,-87.5561,1.287,5.25,1111122 
DISL,ioos:station:DISL:PPTA:1,2016-06-05T06:00:00Z,30.2791,-87.5561,1.288,5.46,1111122 
DISL,ioos:station:DISL:PPTA:1,2016-06-05T06:30:00Z,30.2791,-87.5561,1.298,5.58,1111122 
DISL,ioos:station:DISL:PPTA:1,2016-06-05T07:00:00Z,30.2791,-87.5561,1.302,5.96,1111122 
DISL,ioos:station:DISL:PPTA:1,2016-06-05T07:30:00Z,30.2791,-87.5561,1.287,5.22,1111122 
DISL,ioos:station:DISL:PPTA:1,2016-06-05T08:00:00Z,30.2791,-87.5561,1.292,5.6,1111122 
DISL,ioos:station:DISL:PPTA:1,2016-06-05T08:30:00Z,30.2791,-87.5561,1.294,5.74,1111122 
DISL,ioos:station:DISL:PPTA:1,2016-06-05T09:00:00Z,30.2791,-87.5561,1.303,5.5,1111122 
DISL,ioos:station:DISL:PPTA:1,2016-06-05T09:30:00Z,30.2791,-87.5561,1.31,5.61,1111122 
DISL,ioos:station:DISL:PPTA:1,2016-06-05T10:00:00Z,30.2791,-87.5561,1.316,5.7,1111122 
DISL,ioos:station:DISL:PPTA:1,2016-06-05T10:30:00Z,30.2791,-87.5561,1.336,5.39,1111122 
DISL,ioos:station:DISL:PPTA:1,2016-06-05T11:00:00Z,30.2791,-87.5561,1.365,5.45,1111122 
DISL,ioos:station:DISL:PPTA:1,2016-06-05T11:30:00Z,30.2791,-87.5561,1.396,5.78,1111122 
DISL,ioos:station:DISL:PPTA:1,2016-06-05T12:00:00Z,30.2791,-87.5561,1.422,4.99,1111122 
DISL,ioos:station:DISL:PPTA:1,2016-06-05T12:30:00Z,30.2791,-87.5561,1.446,5.68,1111122 
DISL,ioos:station:DISL:PPTA:1,2016-06-05T13:00:00Z,30.2791,-87.5561,1.477,5.76,1111122 
DISL,ioos:station:DISL:PPTA:1,2016-06-05T13:30:00Z,30.2791,-87.5561,1.496,5.66,1111122 
DISL,ioos:station:DISL:PPTA:1,2016-06-05T14:00:00Z,30.2791,-87.5561,1.522,5.52,1111122 
DISL,ioos:station:DISL:PPTA:1,2016-06-05T14:30:00Z,30.2791,-87.5561,1.541,5.58,1111122 
DISL,ioos:station:DISL:PPTA:1,2016-06-05T15:00:00Z,30.2791,-87.5561,1.553,5.63,1111122 
DISL,ioos:station:DISL:PPTA:1,2016-06-05T15:30:00Z,30.2791,-87.5561,1.559,5.6,1111122 
DISL,ioos:station:DISL:PPTA:1,2016-06-05T16:00:00Z,30.2791,-87.5561,1.569,5.98,1111122 
DISL,ioos:station:DISL:PPTA:1,2016-06-05T16:30:00Z,30.2791,-87.5561,1.574,5.69,1111122 
DISL,ioos:station:DISL:PPTA:1,2016-06-05T17:00:00Z,30.2791,-87.5561,1.587,6.14,1111122 
DISL,ioos:station:DISL:PPTA:1,2016-06-05T17:30:00Z,30.2791,-87.5561,1.59,6.41,1111122 
DISL,ioos:station:DISL:PPTA:1,2016-06-05T18:00:00Z,30.2791,-87.5561,1.586,6.36,1111122 
DISL,ioos:station:DISL:PPTA:1,2016-06-05T18:30:00Z,30.2791,-87.5561,1.588,6.38,1111122 
DISL,ioos:station:DISL:PPTA:1,2016-06-05T19:00:00Z,30.2791,-87.5561,1.575,6.53,1111122 
DISL,ioos:station:DISL:PPTA:1,2016-06-05T19:30:00Z,30.2791,-87.5561,1.52,6.56,1111122 
DISL,ioos:station:DISL:PPTA:1,2016-06-05T20:00:00Z,30.2791,-87.5561,1.5,6.37,1111122 
DISL,ioos:station:DISL:PPTA:1,2016-06-05T20:30:00Z,30.2791,-87.5561,1.485,6.75,1111122 
DISL,ioos:station:DISL:PPTA:1,2016-06-05T21:00:00Z,30.2791,-87.5561,1.472,6.59,1111122 
DISL,ioos:station:DISL:PPTA:1,2016-06-05T21:30:00Z,30.2791,-87.5561,1.455,6.69,1111122 
DISL,ioos:station:DISL:PPTA:1,2016-06-05T22:00:00Z,30.2791,-87.5561,1.427,6.73,1111122 
DISL,ioos:station:DISL:PPTA:1,2016-06-05T22:30:00Z,30.2791,-87.5561,1.416,6.72,1111122 
DISL,ioos:station:DISL:PPTA:1,2016-06-05T23:00:00Z,30.2791,-87.5561,1.402,6.87,1111122 
DISL,ioos:station:DISL:PPTA:1,2016-06-05T23:30:00Z,30.2791,-87.5561,1.382,6.8,1111122 
DISL,ioos:station:DISL:PPTA:1,2016-06-06T00:00:00Z,30.2791,-87.5561,1.357,6.87,1111122 
DISL,ioos:station:DISL:PPTA:1,2016-06-06T00:30:00Z,30.2791,-87.5561,1.351,6.96,1111122 
DISL,ioos:station:DISL:PPTA:1,2016-06-06T01:00:00Z,30.2791,-87.5561,1.344,6.74,1111122 
DISL,ioos:station:DISL:PPTA:1,2016-06-06T01:30:00Z,30.2791,-87.5561,1.339,6.7,1111122 
DISL,ioos:station:DISL:PPTA:1,2016-06-06T02:00:00Z,30.2791,-87.5561,1.333,6.71,1111122 
DISL,ioos:station:DISL:PPTA:1,2016-06-06T02:30:00Z,30.2791,-87.5561,1.323,6.6,1111122 
DISL,ioos:station:DISL:PPTA:1,2016-06-06T03:00:00Z,30.2791,-87.5561,1.312,6.38,1111122 
DISL,ioos:station:DISL:PPTA:1,2016-06-06T03:30:00Z,30.2791,-87.5561,1.307,6.41,1111122 
DISL,ioos:station:DISL:PPTA:1,2016-06-06T04:00:00Z,30.2791,-87.5561,1.308,6.41,1111122 
DISL,ioos:station:DISL:PPTA:1,2016-06-06T04:30:00Z,30.2791,-87.5561,1.31,6.2,1111122 
DISL,ioos:station:DISL:PPTA:1,2016-06-06T05:00:00Z,30.2791,-87.5561,1.313,5.9,1111122 
DISL,ioos:station:DISL:PPTA:1,2016-06-06T05:30:00Z,30.2791,-87.5561,1.316,5.48,1111122 
DISL,ioos:station:DISL:PPTA:1,2016-06-06T06:00:00Z,30.2791,-87.5561,1.326,5.55,1111122 
DISL,ioos:station:DISL:PPTA:1,2016-06-06T06:30:00Z,30.2791,-87.5561,1.336,5.02,1111122 
DISL,ioos:station:DISL:PPTA:1,2016-06-06T07:00:00Z,30.2791,-87.5561,1.347,4.88,1111122 
DISL,ioos:station:DISL:PPTA:1,2016-06-06T07:30:00Z,30.2791,-87.5561,1.354,4.97,1111122 
DISL,ioos:station:DISL:PPTA:1,2016-06-06T08:00:00Z,30.2791,-87.5561,1.362,4.6,1111122 
DISL,ioos:station:DISL:PPTA:1,2016-06-06T08:30:00Z,30.2791,-87.5561,1.371,5.28,1111122 
DISL,ioos:station:DISL:PPTA:1,2016-06-06T09:00:00Z,30.2791,-87.5561,1.375,4.97,1111122 
DISL,ioos:station:DISL:PPTA:1,2016-06-06T09:30:00Z,30.2791,-87.5561,1.383,4.44,1111122 
DISL,ioos:station:DISL:PPTA:1,2016-06-06T10:00:00Z,30.2791,-87.5561,1.393,4.99,1111122 
DISL,ioos:station:DISL:PPTA:1,2016-06-06T10:30:00Z,30.2791,-87.5561,1.399,4.93,1111122 
DISL,ioos:station:DISL:PPTA:1,2016-06-06T11:00:00Z,30.2791,-87.5561,1.408,5.31,1111122 
DISL,ioos:station:DISL:PPTA:1,2016-06-06T11:30:00Z,30.2791,-87.5561,1.416,5.16,1111122 
DISL,ioos:station:DISL:PPTA:1,2016-06-06T12:00:00Z,30.2791,-87.5561,1.426,5.16,1111122 
DISL,ioos:station:DISL:PPTA:1,2016-06-06T12:30:00Z,30.2791,-87.5561,1.441,5.5,1111122 
DISL,ioos:station:DISL:PPTA:1,2016-06-06T13:00:00Z,30.2791,-87.5561,1.455,5.09,1111122 
DISL,ioos:station:DISL:PPTA:1,2016-06-06T13:30:00Z,30.2791,-87.5561,1.471,4.52,1111122 
DISL,ioos:station:DISL:PPTA:1,2016-06-06T14:00:00Z,30.2791,-87.5561,1.488,4.5,1111122 
DISL,ioos:station:DISL:PPTA:1,2016-06-06T14:30:00Z,30.2791,-87.5561,1.507,5.15,1111122 
DISL,ioos:station:DISL:PPTA:1,2016-06-06T15:00:00Z,30.2791,-87.5561,1.528,4.96,1111122 
DISL,ioos:station:DISL:PPTA:1,2016-06-06T15:30:00Z,30.2791,-87.5561,1.541,5.05,1111122 